Weather in Bazitamak

Russia / Republic of Bashkortostan     55°38′49″N   54°32′04″E
temp.,
°C
wind,
m/s
gust,
m/s
humid.,
%
clouds,
%
prec.,
mm/h
press.,
hPa
HPBL,
m
5 december, sun
sun523:00+2sw61398100 3.4 1008830
02:000wsw4997100 1.0 1009602
05:000wsw4991100 1.3 1010586
08:00−1wsw4986100 0.0 1011581
11:00−2wsw488847 0.0 1013580
14:00−2w578295 0.1 1014878
17:00−2w4778100 0.1 1016887
20:00−2w3679100 0.1 1017777
6 december, mon
mon623:00−3nw4584100 0.1 1018481
02:00−6nnw4480100 0.0 1019429
05:00−7nnw4578100 0.1 1021573
08:00−9nnw45725 0.0 1022483
11:00−10nnw34685 0.0 1024442
14:00−9nw45655 0.0 1025529
17:00−10nw35695 0.0 1027447
20:00−11nnw34755 0.0 1029373
7 december, tue
tue723:00−11nnw22785 0.0 1030311
02:00−12nnw12785 0.0 1031241
05:00−12nnw12795 0.0 1032199
08:00−12nne118117 0.0 1033162
11:00−12nne11795 0.0 1035181
14:00−10ene117215 0.0 1035301
17:00−10e11775 0.0 1036140
20:00−10ese2482100 0.0 1036173
8 december, wed
wed823:00−9ese3583100 0.0 1035219
02:00−9se368298 0.0 1035266
05:00−8se4876100 0.0 1034283
08:00−7se51177100 0.1 1033314
11:00−5se61367100 0.3 1032379
14:00−4sse61384100 0.3 1030411
17:00−3s61496100 2.1 1029460
20:00−1s61388100 1.1 1029441
9 december, thu
thu923:00−2s51289100 1.1 1029347
02:00−2s4990100 0.0 1030252
05:00−2sse4990100 0.0 1030225
08:00−3sse4890100 0.0 1030190
11:00−2sse4988100 0.0 1030222
14:00−1sse4983100 0.0 1030259
17:00−2se4886100 0.0 1030177
20:00−3se4108399 0.0 1029221